Погода Верхний Баскунчак

Погода Верхний Баскунчак : погода сейчас, прогноз погоды и архив. Всё, что Вы хотите узнать о погоде Верхний Баскунчак!

Хотите узнать прогноз погоды Верхний Баскунчак? Тогда Вам сюда: Погода Верхний Баскунчак

Поиск расширенной информации на нашем сайте:

Другие новости

Новости СМИ2

Главная страница сайта

Новости сайта

03.07.2017

Напоминаем, что на нашем специализированном сайте Метеоцентр.Азия вы можете получить высокодетализированные автоматические прогнозы погоды по пунктам России, СНГ и мира в авиационном формате (включающие направление и скорость ветра, видимость, явления погоды, количество и форму облачности, нижнюю и верхнюю границу облачности).


Погода Верхний Баскунчак - сегодня

Время (UTC), дата Ветер
(°,м/с) 
Видим.   Явления Облачность Т
(°С)
Тd
(°С)
f(%) Тe
(°С)
Pmin
(гПа)
dP
(гПа)
Po
(мм)
O2
(г/м3)
Тmin Tmax R s Состояние
почвы
06 19.09.17 150 (ЮВ) 20000 м    ясно 
+27.2 +11.9 39 +31  1017.6  0.2  760  276           
09 19.09.17 140 (ЮВ) 6-10{10}  20000 м    ясно 
+33 +3.7 16 +33  1016.6  -0.9  759  273           
12 19.09.17 140 (ЮВ) 5{10}  20000 м    ясно 
+34 +1.8 13 +34  1015.3  -1.3  758  272           
15 19.09.17 140 (ЮВ) 2{10}  20000 м    ясно 
+29.8 +2.8 18 +30  1015.5  0.1  759  275    +34.3       
18 19.09.17 130 (ЮВ) 20000 м    ясно 
+24.1 +4.8 29 +24  1016.5  759  280           
21 19.09.17 110 (В) 20000 м    ясно 
+21.4 +8.9 45 +21  1016.5  -0.1  759  282           
00 20.09.17 080 (В) 20000 м    ясно 
+18.4 +9.4 56 +19  1015.9  -0.6  759  285           
03 20.09.17 060 (СВ) 20000 м    3/3 600 м 
[Sc]
+15.7 +8.8 63 +16  1016.2  0.2  759  288  +15.7        сухая 
06 20.09.17 120 (ЮВ) 20000 м    ясно 
+27 +8.1 30 +27  1016.7  0.8  760  277  +15.6         
09 20.09.17 140 (ЮВ) 5-10{12}  10 км  пыльный позёмок  ясно 
+32.5 +4.7 17 +33  1015.8  -0.9  759  273           
12 20.09.17 140 (ЮВ) 5{12}  20000 м    ясно 
+33.4 +2.9 15 +33  1015.2  -0.6  758  272           
15 20.09.17 130 (ЮВ) 2{10}  20000 м    ясно 
+29.1 +1.6 17 +29  1015.3  758  276    +33.7       
18 20.09.17 110 (В) 20000 м    ясно 
+22.5 +2.2 26 +23  1016.5  1.1  759  282           
21 20.09.17 110 (В) 20000 м    ясно 
+21 +10.6 51 +23  1016.8  0.3  759  282           
00 21.09.17 090 (В) 20000 м    ясно 
+18.4 +9.7 57 +20  1016.9  0.1  760  285           
03 21.09.17 050 (СВ) 20000 м    ясно 
+17.7 +9.2 57 +19  1017.7  0.8  760  286  +17.6        сухая 
06 21.09.17 070 (В) 20000 м    ясно 
+26.3 +8.7 33 +26  1018.3  0.7  761  278  +17.5         
09 21.09.17 080 (В) 20000 м    ясно 
+32.6 +3.7 16 +33  1017.5  -0.7  760  273           
12 21.09.17 070 (В) 20000 м    ясно 
+33.7 +1.1 13 +34  1016.8  -0.7  760  272           
15 21.09.17 050 (СВ) 20000 м    ясно 
+29.3 -0.2 15 +29  1017  0.1  760  276    +34       
18 21.09.17 060 (СВ) 20000 м    ясно 
+23.5 +1.1 23 +24  1017.5  0.5  760  282           
21 21.09.17 050 (СВ) 20000 м    ясно 
+20.3 +3.5 33 +20  1018  0.4  760  285           
00 22.09.17 060 (СВ) 20000 м    ясно 
+17.6 +4.5 42 +18  1018.4  0.4  761  287           
03 22.09.17 060 (СВ) 20000 м    ясно 
+15.5 +2.2 41 +15  1019.1  0.6  761  290  +15.5        сухая 
06 22.09.17 050 (СВ) 6-11{12}  10 км  пыльный позёмок  ясно 
+19.7 +3.5 34 +20  1019.7  0.7  762  286  +15.3         
Время (UTC), дата Ветер
(°,м/с) 
Видим.   Явления Облачность Т
(°С)
Тd
(°С)
f(%) Тe
(°С)
Pmin
(гПа)
dP
(гПа)
Po
(мм)
O2
(г/м3)
Тmin Tmax R s Состояние
почвы

Для получения пояснительной информации подведите курсор к названию столбца.

ПОГОДА Верхний Баскунчак - архив

Всё, что Вы хотите узнать о погоде Верхний Баскунчак - удобно и подробно!

Выберите нужную дату (начиная с 1 января 2015* года) и нажмите кнопку "Найти".
Будут отображены архивные сводки погоды по пункту Верхний Баскунчак, начиная с указанной даты.


Отображать данные в формате CSV (для использования в таблицах Excel)


Внимание! Наш архив погоды предназначен исключительно для личного некоммерческого использования в познавательных целях. Если Вам необходимы официальные справки о состоянии погоды (для производственных, юридических, коммерческих и т.п. целей), обращайтесь в органы Росгидромета.

*Примечание: данная дата относится к архиву по метеостанциям СССР (Россия, СНГ, Балтия).
Архив по метеостанциям Зарубежной Европы и Азии (кроме Китая) хранится 10 дней, по другим регионам земного шара (Китай, Африка, Америка, Австралия, Океания) - 1 день.

Верхний Баскунчак - район местоположения метеостанции


Название, широта, долгота, высота метеостанции:
Верхний Баскунчак 48.2°ш. 46.7°д. 34 м над ур. моря [Российская Федерация]

Дополнительная информация

В oтличие oт бoльшинства пoгoдных сайтoв мы публикуем пoдрoбную метеoинфoрмацию в детальнoм прoфессиoнальнoм фoрмате.

Характеристики температуры и влажнoсти вoздуха измеряются на высoте 2 м в тени вдали oт зданий и деревьев.
Скoрoсть ветра измеряется на высoте 10 м (на урoвне рoста челoвека скoрoсть ветра ниже в 1.5-2 раза). Если метеoстанция нахoдится в гoрoде или в лесу, тo скoрoсть ветра занижена на 2-4 м/с пo сравнению с oткрытым местoм. Скoрoсть ветра над акватoриями крупных рек и oзёр, а также на вершинах хoлмoв на 2-5 м/с выше, чем в oбычных услoвиях.
Атмoсфернoе давление в разных тoчках местнoсти мoжет значительнo oтличаться oт давления на метеoстанции, в зависимoсти oт услoвий рельефа (при пoдъёме на 10 м давление пoнижается примернo на 1 мм рт.ст.).